Location: Menard
(37.9101°N, 89.8398°W)
Time: 00:39:09
(UTC+00:00)

ACS3 Solar Sail - Pass Details

Date: 20 October 2024
Orbit: 961 x 1022 km, 97.5° (Epoch: 03 November)

Event Time Altitude Azimuth Distance (km) Brightness Sun altitude
Exits shadow 01:44:14 65° 19° (NNE) 1,122 1.9 -30.0°
Drops below altitude 10° 01:49:45 10° 352° (N) 2,827 4.4 -31.1°
Sets 01:52:15 0° 351° (N) 3,778 5.1 -31.5°
